Darstellungsparameter: Aktuell verwendete Einstellungen:
Skalierung der Graphiken ... ?
xyx+y,   Skalierungsfaktor:      Skalierung: Modus: x, Faktor: 1
Darstellungszeitraum ... ?
Vom - - bis: - -   Zeitraum: 25.09.2010 - 25.09.2010
Min/Max/Avg-Anzeige ... ?
Zeige MMA aktuell
Zeige MMA Monat
Zeige MMA alles
Zeige --A aktuell
Zeige --A Monat
Zeige --A alles
Keine MMA-Anzeige
MMA:
Minimum Maximum Average (ber die Originaldaten)
MMA-Basis: 25.09.2010 - 25.09.2010
Quicknavigation für Darstellung... ?
Tage:      1T, 2T, 3T, 5T -1T -2T -3T -5T +1T +2T +3T +5T
Wochen: 1W, 2W, 3W -1W -2W -3W +1W +2W +3W
Monate: 1M, 3M, 6M -1M -3M -6M +1M +3M +6M
Jahre:    1J, 3J, 5J, 10J -1J -3J -5J -10J +1J +3J +5J +10J
Nutze für die Darstellung ... ?
Originaldaten oder Mittelwerte auf ...
Stundenbasis Tagesbasis Wochenbasis
Monatsbasis Jahresbasis      Datenbasis: Original-Daten
Darstellen als:
Statistik (Auto) Statistik J:M      Darstellung:
Zur Graphik,    zurück zur Übersicht aller Sensoren.
 
Tabellarische Datenbersicht: ?
 
Sensor: Nr:Datum:Temp:Abs-Feuchte:Windchill:Wind:
Aussen-T/F 1 25-09-2010 00:10:04 12.4 C 10.38 g/m*3 12.4 C 0 km/h
2 25-09-2010 00:22:04 12.5 C 10.44 g/m*3 12.5 C 0 km/h
3 25-09-2010 00:34:04 12.5 C 10.44 g/m*3 12.5 C 0 km/h
4 25-09-2010 00:46:04 12.5 C 10.44 g/m*3 12.5 C 0 km/h
5 25-09-2010 00:58:05 12.5 C 10.44 g/m*3 12.5 C 0 km/h
6 25-09-2010 01:10:05 12.5 C 10.44 g/m*3 12.5 C 0 km/h
7 25-09-2010 01:22:05 12.5 C 10.44 g/m*3 12.5 C 0 km/h
8 25-09-2010 01:34:05 12.5 C 10.44 g/m*3 12.5 C 0 km/h
9 25-09-2010 01:46:05 12.5 C 10.44 g/m*3 12.5 C 0 km/h
10 25-09-2010 01:58:05 12.6 C 10.51 g/m*3 12.6 C 0 km/h
11 25-09-2010 02:10:05 12.6 C 10.51 g/m*3 12.6 C 0 km/h
12 25-09-2010 02:22:05 12.6 C 10.51 g/m*3 12.6 C 0 km/h
13 25-09-2010 02:34:05 12.6 C 10.51 g/m*3 12.6 C 0 km/h
14 25-09-2010 02:46:05 12.6 C 10.51 g/m*3 12.6 C 0 km/h
15 25-09-2010 02:58:05 12.6 C 10.51 g/m*3 12.6 C 0 km/h
16 25-09-2010 03:10:05 12.7 C 10.58 g/m*3 12.7 C 0 km/h
17 25-09-2010 03:22:05 12.6 C 10.51 g/m*3 12.6 C 0 km/h
18 25-09-2010 03:34:05 12.6 C 10.51 g/m*3 12.6 C 0 km/h
19 25-09-2010 03:46:05 12.6 C 10.51 g/m*3 12.6 C 0 km/h
20 25-09-2010 03:58:05 12.6 C 10.51 g/m*3 12.6 C 0 km/h
21 25-09-2010 04:10:05 12.6 C 10.51 g/m*3 12.6 C 0 km/h
22 25-09-2010 04:22:05 12.5 C 10.44 g/m*3 12.5 C 0 km/h
23 25-09-2010 04:34:05 12.6 C 10.51 g/m*3 12.6 C 0 km/h
24 25-09-2010 04:46:05 12.5 C 10.44 g/m*3 12.5 C 0 km/h
25 25-09-2010 04:58:06 12.5 C 10.44 g/m*3 12.5 C 0 km/h
Sensor: Nr:Datum:Temp:Abs-Feuchte:Windchill:Wind:
Aussen-T/F 26 25-09-2010 05:10:06 12.5 C 10.44 g/m*3 12.5 C 0 km/h
27 25-09-2010 05:22:06 12.4 C 10.38 g/m*3 12.4 C 0 km/h
28 25-09-2010 05:34:06 12.4 C 10.38 g/m*3 12.4 C 0 km/h
29 25-09-2010 05:46:06 12.3 C 10.32 g/m*3 12.3 C 0 km/h
30 25-09-2010 05:58:06 12.3 C 10.21 g/m*3 12.3 C 0 km/h
31 25-09-2010 06:10:06 12.1 C 10.08 g/m*3 12.1 C 0 km/h
32 25-09-2010 06:22:06 12.1 C 10.08 g/m*3 12.1 C 0 km/h
33 25-09-2010 06:34:06 12.1 C 10.08 g/m*3 12.1 C 0 km/h
34 25-09-2010 06:46:06 12 C 10.02 g/m*3 12 C 0 km/h
35 25-09-2010 06:58:06 12 C 10.02 g/m*3 12 C 0 km/h
36 25-09-2010 07:10:06 12 C 10.02 g/m*3 12 C 0 km/h
37 25-09-2010 07:22:06 11.9 C 9.96 g/m*3 11.9 C 0 km/h
38 25-09-2010 07:34:06 11.9 C 9.96 g/m*3 11.9 C 0 km/h
39 25-09-2010 07:46:02 11.8 C 9.89 g/m*3 11.8 C 0 km/h
40 25-09-2010 07:58:02 11.8 C 9.89 g/m*3 11.8 C 0 km/h
41 25-09-2010 08:10:02 11.7 C 9.83 g/m*3 11.7 C 0 km/h
42 25-09-2010 08:22:02 11.6 C 9.77 g/m*3 11.6 C 0 km/h
43 25-09-2010 08:34:02 11.2 C 9.43 g/m*3 11.2 C 0 km/h
44 25-09-2010 08:46:02 11 C 9.31 g/m*3 11 C 0 km/h
45 25-09-2010 08:58:02 10.8 C 9.19 g/m*3 10.8 C 0 km/h
46 25-09-2010 09:10:01 10.6 C 9.08 g/m*3 10.6 C 0 km/h
47 25-09-2010 09:22:02 10.4 C 8.96 g/m*3 10.4 C 0 km/h
48 25-09-2010 09:34:02 10.5 C 8.92 g/m*3 10.5 C 0 km/h
49 25-09-2010 09:46:02 10.5 C 8.83 g/m*3 10.5 C 0 km/h
50 25-09-2010 09:58:02 10.4 C 8.29 g/m*3 10.4 C 0 km/h
Sensor: Nr:Datum:Temp:Abs-Feuchte:Windchill:Wind:
Aussen-T/F 51 25-09-2010 10:10:03 10.5 C 8.15 g/m*3 10.5 C 0 km/h
52 25-09-2010 10:22:02 10.8 C 8.2 g/m*3 10.8 C 0 km/h
53 25-09-2010 10:34:02 11.1 C 8.36 g/m*3 11.1 C 0 km/h
54 25-09-2010 10:46:01 11.3 C 8.36 g/m*3 11.3 C 0 km/h
55 25-09-2010 10:58:01 11.5 C 8.16 g/m*3 11.5 C 0 km/h
56 25-09-2010 11:10:02 11.6 C 7.8 g/m*3 11.6 C 0 km/h
57 25-09-2010 11:22:01 12.1 C 7.72 g/m*3 12.1 C 0 km/h
58 25-09-2010 11:34:02 12.3 C 7.38 g/m*3 12.3 C 0 km/h
59 25-09-2010 11:46:01 12.5 C 7.26 g/m*3 12.5 C 0 km/h
60 25-09-2010 11:58:01 13 C 7.03 g/m*3 13 C 0 km/h
61 25-09-2010 12:10:02 12.8 C 6.83 g/m*3 12.8 C 0 km/h
62 25-09-2010 12:22:01 12.8 C 7.06 g/m*3 12.8 C 0 km/h
63 25-09-2010 12:34:02 12.4 C 6.88 g/m*3 12.4 C 0 km/h
64 25-09-2010 12:46:02 11.8 C 6.84 g/m*3 11.8 C 0 km/h
65 25-09-2010 12:58:02 12.4 C 6.88 g/m*3 12.4 C 0 km/h
66 25-09-2010 13:10:02 12.7 C 6.68 g/m*3 12.7 C 0 km/h
67 25-09-2010 13:22:01 13 C 6.35 g/m*3 13 C 0 km/h
68 25-09-2010 13:34:02 13.8 C 6.43 g/m*3 13.8 C 0 km/h
69 25-09-2010 13:46:01 13.5 C 5.38 g/m*3 13.5 C 0 km/h
70 25-09-2010 13:58:01 13.3 C 5.31 g/m*3 13.3 C 0 km/h
71 25-09-2010 14:10:02 13.7 C 5.45 g/m*3 13.7 C 0 km/h
72 25-09-2010 14:22:01 13.5 C 5.5 g/m*3 13.5 C 0 km/h
73 25-09-2010 14:34:02 13.8 C 5.36 g/m*3 13.8 C 0 km/h
74 25-09-2010 14:46:01 14.4 C 5.32 g/m*3 14.4 C 0 km/h
75 25-09-2010 14:58:01 15.8 C 5.12 g/m*3 15.8 C 0 km/h
Sensor: Nr:Datum:Temp:Abs-Feuchte:Windchill:Wind:
Aussen-T/F 76 25-09-2010 15:10:02 14.8 C 4.43 g/m*3 14.8 C 0 km/h
77 25-09-2010 15:22:02 14.5 C 4.6 g/m*3 14.5 C 0 km/h
78 25-09-2010 15:34:01 15.7 C 4.68 g/m*3 15.7 C 0 km/h
79 25-09-2010 15:46:02 15.5 C 4.63 g/m*3 15.5 C 0 km/h
80 25-09-2010 15:58:02 14.7 C 5.04 g/m*3 14.7 C 0 km/h
81 25-09-2010 16:10:01 14.2 C 4.88 g/m*3 14.2 C 0 km/h
82 25-09-2010 16:22:02 14.4 C 5.07 g/m*3 14.4 C 0 km/h
83 25-09-2010 16:34:01 14.7 C 5.16 g/m*3 14.7 C 0 km/h
84 25-09-2010 16:46:02 15.6 C 4.79 g/m*3 15.6 C 0 km/h
85 25-09-2010 16:58:02 14.7 C 4.91 g/m*3 14.7 C 0 km/h
86 25-09-2010 17:10:02 14.3 C 4.91 g/m*3 14.3 C 0 km/h
87 25-09-2010 17:22:02 14.8 C 5.32 g/m*3 14.8 C 0 km/h
88 25-09-2010 17:34:03 15.6 C 5.19 g/m*3 15.6 C 0 km/h
89 25-09-2010 17:46:02 16.8 C 5.15 g/m*3 16.8 C 0 km/h
90 25-09-2010 17:58:02 16.5 C 4.77 g/m*3 16.5 C 0 km/h
91 25-09-2010 18:10:01 15.4 C 4.47 g/m*3 15.4 C 0 km/h
92 25-09-2010 18:22:01 14.3 C 4.67 g/m*3 14.3 C 0 km/h
93 25-09-2010 18:34:02 13.9 C 4.92 g/m*3 13.9 C 0 km/h
94 25-09-2010 18:46:02 13.8 C 5.36 g/m*3 13.8 C 0 km/h
95 25-09-2010 18:58:02 13.7 C 5.8 g/m*3 13.7 C 0 km/h
96 25-09-2010 19:10:02 13.5 C 5.5 g/m*3 13.5 C 0 km/h
97 25-09-2010 19:22:02 13.1 C 5.59 g/m*3 13.1 C 0 km/h
98 25-09-2010 19:34:02 13 C 5.67 g/m*3 13 C 0 km/h
99 25-09-2010 19:46:02 12.7 C 5.9 g/m*3 12.7 C 0 km/h
100 25-09-2010 19:58:02 12.6 C 6.08 g/m*3 12.6 C 0 km/h
Sensor: Nr:Datum:Temp:Abs-Feuchte:Windchill:Wind:
Aussen-T/F 101 25-09-2010 20:10:02 12.5 C 5.72 g/m*3 12.5 C 0 km/h
102 25-09-2010 20:22:02 12.2 C 5.61 g/m*3 12.2 C 0 km/h
103 25-09-2010 20:34:02 11.8 C 5.79 g/m*3 11.8 C 0 km/h
104 25-09-2010 20:46:02 11.1 C 6.04 g/m*3 11.1 C 0 km/h
105 25-09-2010 20:58:02 10.9 C 6.17 g/m*3 10.9 C 0 km/h
106 25-09-2010 21:10:02 10.4 C 6.17 g/m*3 10.4 C 0 km/h
107 25-09-2010 21:22:03 10.2 C 6.28 g/m*3 10.2 C 0 km/h
108 25-09-2010 21:34:02 10.1 C 6.34 g/m*3 10.1 C 0 km/h
109 25-09-2010 21:46:03 10 C 6.3 g/m*3 10 C 0 km/h
110 25-09-2010 21:58:03 9.9 C 6.44 g/m*3 9.9 C 0 km/h
111 25-09-2010 22:10:02 9.9 C 6.54 g/m*3 9.9 C 0 km/h
112 25-09-2010 22:22:02 10.2 C 6.57 g/m*3 10.2 C 0 km/h
113 25-09-2010 22:34:02 10.5 C 6.69 g/m*3 10.5 C 0 km/h
114 25-09-2010 22:46:02 10.5 C 6.69 g/m*3 10.5 C 0 km/h
115 25-09-2010 22:58:02 10.3 C 6.9 g/m*3 10.3 C 0 km/h
116 25-09-2010 23:10:02 9.6 C 7.15 g/m*3 9.6 C 0 km/h
117 25-09-2010 23:22:02 9.3 C 7.28 g/m*3 9.3 C 0 km/h
118 25-09-2010 23:34:01 9.2 C 7.5 g/m*3 9.2 C 0 km/h
119 25-09-2010 23:46:02 9.1 C 7.45 g/m*3 9.1 C 0 km/h
120 25-09-2010 23:58:02 9.2 C 7.59 g/m*3 9.2 C 0 km/h

Legende:
   Min
   Max


Maximal/Minimal-Werte vom 25.09.2010 - 25.09.2010

Sensor Min Max Avg
Temp
(Aussen-T/F)
9.1 °C
25-09-2010  23:46:02
16.8 °C
25-09-2010  17:46:02
12.42 °C
Abs-Feuchte
(Aussen-T/F)
4.43 g/m*3
25-09-2010  15:10:02
10.58 g/m*3
25-09-2010  03:10:05
7.72 g/m*3
Windchill
(Aussen-T/F)
9.1 C
25-09-2010  23:46:02
16.8 C
25-09-2010  17:46:02
12.32 C

Die Daten stammen von einer Davis Vantage Pro 2 Wetter-Station und werden unter Linux mit der Software wview2wettercgi und aufbereitet. Alle Angaben erfolgen ohne Gewähr für ihre Vollständigkeit oder Richtigkeit.
Kontakt: Rainer Krienke krienke@uni-koblenz.de . Meine Webseiten an der Uni Koblenz oder privat.
Version: $Revision: 0.78 $